[ hide orbit diagram ]
For accurate long-term ephemerides, please instead use our Horizons system.This orbit viewer was implemented using two-body methods, and hence should not be used for determining accurate long-term trajectories (over several years or decades) or planetary encounter circumstances.
Orbital Elements at Epoch 2459200.5 (2020-Dec-17.0) TDB
Reference: JPL 40 (heliocentric ecliptic J2000)
Element | Value | Uncertainty (1-sigma) | Units |
e | .1104235565796657 | 3.6197e-08 | |
a | 2.622591276815736 | 1.0756e-08 | au |
q | 2.332995420574935 | 9.6732e-08 | au |
i | 4.68122845306541 | 3.6013e-06 | deg |
node | 69.64051572124747 | 4.9985e-05 | deg |
peri | 290.6108775136621 | 5.2748e-05 | deg |
M | 76.2939099733436 | 1.6837e-05 | deg |
tp | 2458871.737921744293 (2020-Jan-23.23792174) | 7.2319e-05 | TDB |
period | 1551.294830916471 4.25 | 9.5431e-06 2.613e-08 | d yr |
n | .2320642039317051 | 1.4276e-09 | deg/d |
Q | 2.912187133056535 | 1.1943e-08 | au |
|
| | Orbit Determination Parameters
Additional Information
|
[ show covariance matrix ]
Physical Parameter Table
Parameter |
Symbol |
Value |
Units |
Sigma |
Reference |
Notes |
absolute magnitude |
H |
14.0 |
|
n/a |
MPO350895 |
|
diameter |
diameter |
4.701 |
km |
0.328 |
urn:nasa:pds:neowise_diameters_albedos::2.0[mainbelt] (http://adsabs.harvard.edu/abs/2011ApJ...741...68M) |
|
geometric albedo |
albedo |
0.152 |
|
0.035 |
urn:nasa:pds:neowise_diameters_albedos::2.0[mainbelt] (http://adsabs.harvard.edu/abs/2011ApJ...741...68M) |
|
|
11779 Zernike | Discovered 1977 Oct. 16 by C. J. van Houten and I. van Houten-Groeneveld on Palomar Schmidt plates taken by T. Gehrels. |
Frits Zernike (1888-1966), Nobel Laureate in physics exactly half a century ago, was professor of physics and rector at Groningen University and a former assistant of Jacobus Kapteyn. By inventing the phase contrast microscope, he made a major contribution to the "telescope" of medical researchers and biologists. |
NOTE: some special characters may not display properly (any characters within {} are an attempt to place the proper accent above a character) |
Reference: 20031110/MPCPages.arc | Last Updated: 2003-11-12 |
|
[ show close-approach data ]
|